Regional Weather Roundup
Issued by NWS Midland/Odessa, TX

Home | Current Version | Previous Version | Text Only | Print | Product List | Glossary On
Versions: 1 2 3 4 5 6 7 8 9 10 11 12 13 14 15 16 17 18 19 20 21 22 23 24 25 26 27 28 29 30 31 32 33 34 35 36 37 38 39 40 41 42 43 44 45 46 47 48 49 50
000
ASUS44 KMAF 271110
RWRMAF
MIDLAND AREA WEATHER ROUNDUP
NATIONAL WEATHER SERVICE MIDLAND TX
600 AM CDT WED AUG 27 2014

...IN SOUTHWEST TEXAS AND SOUTHEAST NEW MEXICO...

CITY           SKY/WX    TMP DP  RH WIND       PRES   REMARKS
ALPINE         CLEAR     64  55  71 SW6       30.23R
ANDREWS        FAIR      71  60  67 E6        30.10S
ARTESIA        NOT AVBL
BIG SPRING     CLEAR     79  62  56 SE9       30.09S
CARLSBAD       MOCLDY    70  64  81 CALM      30.09S
DRYDEN           N/A     79  63  57 E8        30.02F
FORT STOCKTON  CLEAR     71  55  56 S8        30.08S
GUAD PASS      MOCLDY    65  58  78 SW8       30.25S
HOBBS          NOT AVBL
MARFA          CLEAR     57  54  88 NW5       30.22R
MIDLAND AIRPK  CLEAR     76  59  56 SE5       30.08S
MIDLAND INTL   CLEAR     74  57  55 SE6       30.08R
ODESSA         CLEAR     73  55  53 SE7       30.09R
PECOS          CLEAR     69  63  80 CALM      30.05S
PRESIDIO       FAIR      78  55  44 N7        30.05S
SEMINOLE       CLEAR     71  57  59 SE5       30.12R
SNYDER         CLEAR     76  64  66 SE7       30.08R
WINK           PTCLDY    74  54  49 E7        30.05S
$$
...OTHER STATIONS IN TEXAS...

CITY           SKY/WX    TMP DP  RH WIND       PRES   REMARKS
ABILENE        CLEAR     75  65  70 SE7       30.05F
AMARILLO       MOCLDY    66  63  90 E8        30.15F
AUSTIN         PTCLDY    72  70  93 CALM      29.99S
BROWNSVILLE    CLEAR     78  76  93 NW5       29.90S
CORPUS CHRISTI PTCLDY    79  75  87 N8        29.92F
DALLAS FTW     PTCLDY    78  70  76 SE6       30.02S
DEL RIO        CLEAR     81  67  62 E7        29.98S
EL PASO        MOCLDY    70  65  84 CALM      30.14S
HOUSTON INT    MOCLDY    75  72  88 CALM      29.96S
LUBBOCK        MOCLDY    72  62  71 SE6       30.12R
SAN ANGELO     CLEAR     74  65  73 CALM      30.04S
SAN ANTONIO    PTCLDY    78  70  76 CALM      30.00S
WACO           CLEAR     75  69  81 CALM      30.01R
WICHITA FALLS  NOT AVBL
$$
...OTHER LOCATIONS IN NEW MEXICO...

CITY           SKY/WX    TMP DP  RH WIND       PRES   REMARKS
ALAMAGORDO     CLOUDY    66  63  88 N13       30.19R
ALBUQUERQUE    CLOUDY    61  57  87 NW6       30.28R
CANNON AFB     MOCLDY    66  61  82 N3        30.19R
CLOVIS           N/A     64  61  88 N3        30.20S
HOLLOMAN AFB   CLOUDY    67  67 100 N14       30.18R
ROSWELL        MOCLDY    69  65  86 W7        30.14S
RUIDOSO        CLOUDY    55  54  94 N6        30.37S
SANTA FE       LGT RAIN  58  56  93 W5        30.30R
TRUTH OR CONSE CLOUDY    63  62  97 NE7       30.23S
TUCUMCARI        N/A     68  63  84 CALM      30.15F
$$



USA.gov is the U.S. government's official web portal to all federal, state and local government web resources and services.